Weather History for Taunton, MA

Change the Weather History Date:

Monday, December 31, 2012

  Actual Average Record
Temperature  
Mean Temperature 26 °F -  
Max Temperature 35 °F 37 °F 61 °F (1965)
Min Temperature 19 °F 18 °F -15 °F (1963)
Degree Days  
Heating Degree Days 38    
Moisture  
Dew Point 17 °F    
Average Humidity 63    
Maximum Humidity 66    
Minimum Humidity 55    
Precipitation  
Precipitation 0.00 in - - ()
Sea Level Pressure  
Sea Level Pressure 29.96 in    
Wind  
Wind Speed 7 mph (WSW)    
Max Wind Speed 14 mph    
Max Gust Speed -    
Visibility 10 miles    
Events      
Averages and records for this station are not official NWS values.
T = Trace of Precipitation, MM = Missing Value Source: NWS Daily Summary

Daily Weather History Graph

Daily Weather History Graph

Search for Another Location

Airport:

Trip Planner

Search our weather history database for the weather conditions in past years. The results will help you decide how hot, cold, wet, or windy it might be!

Date:

Astronomy

Dec. 31, 2012 Rise Set
Actual Time 7:11 AM EST 4:23 PM EST
Civil Twilight 6:40 AM EST 4:54 PM EST
Nautical Twilight 6:05 AM EST 5:29 PM EST
Astronomical Twilight 5:31 AM EST 6:03 PM EST
Moon 7:54 PM EST (12/31) 8:48 AM EST (12/31)
Length of Visible Light 10h 14m
Length of Day
9h 11m
Waning Gibbous, 90% of the Moon is Illuminated
Dec 31
Waning Gibbous
Jan 4
Last Quarter
Jan 11
New
Jan 18
First Quarter
Jan 26
Full

Hourly Weather History & Observations

Time (EST) Temp. Windchill Dew Point Humidity Pressure Visibility Wind Dir Wind Speed Gust Speed Precip Events Conditions
12:52 AM 21.0 °F 12.4 °F 9.0 °F 60% 29.99 in 10.0 mi Variable 6.9 mph - N/A   Clear
1:52 AM 21.9 °F 13.4 °F 8.1 °F 55% 30.00 in 10.0 mi West 6.9 mph - N/A   Clear
2:52 AM 19.9 °F 13.4 °F 9.0 °F 62% 30.03 in 10.0 mi WSW 4.6 mph - N/A   Clear
3:52 AM 19.9 °F 12.1 °F 9.0 °F 62% 30.04 in 10.0 mi West 5.8 mph - N/A   Clear
4:52 AM 21.0 °F 13.4 °F 10.0 °F 63% 30.03 in 10.0 mi SW 5.8 mph - N/A   Clear
5:52 AM 21.0 °F 11.4 °F 10.9 °F 65% 30.06 in 10.0 mi SW 8.1 mph - N/A   Clear
6:52 AM 21.0 °F 14.6 °F 10.9 °F 65% 30.06 in 10.0 mi WSW 4.6 mph - N/A   Partly Cloudy
7:52 AM 23.0 °F 15.8 °F 12.9 °F 65% 30.05 in 10.0 mi SW 5.8 mph - N/A   Clear
8:52 AM 26.1 °F 17.6 °F 16.0 °F 66% 30.06 in 10.0 mi WSW 8.1 mph - N/A   Overcast
9:52 AM 28.0 °F 19.3 °F 18.0 °F 66% 30.06 in 10.0 mi WSW 9.2 mph - N/A   Overcast
10:52 AM 28.9 °F 21.9 °F 18.0 °F 64% 30.04 in 10.0 mi WSW 6.9 mph - N/A   Overcast
11:52 AM 30.9 °F 24.3 °F 19.9 °F 64% 30.00 in 10.0 mi West 6.9 mph - N/A   Overcast
12:52 PM 32.0 °F 23.6 °F 21.0 °F 64% 29.96 in 10.0 mi West 10.4 mph - N/A   Overcast
1:52 PM 34.0 °F 24.6 °F 21.0 °F 59% 29.94 in 10.0 mi West 13.8 mph - N/A   Partly Cloudy
2:52 PM 34.0 °F 28.8 °F 21.0 °F 59% 29.94 in 10.0 mi West 5.8 mph - N/A   Clear
3:52 PM 33.1 °F 27.7 °F 21.0 °F 61% 29.92 in 10.0 mi WSW 5.8 mph - N/A   Clear
4:52 PM 30.9 °F 25.2 °F 19.9 °F 64% 29.91 in 10.0 mi WSW 5.8 mph - N/A   Clear
5:52 PM 30.9 °F 26.2 °F 19.9 °F 64% 29.89 in 10.0 mi SW 4.6 mph - N/A   Clear
6:52 PM 32.0 °F 26.4 °F 21.0 °F 64% 29.89 in 10.0 mi SW 5.8 mph - N/A   Clear
7:52 PM 33.1 °F 28.7 °F 21.0 °F 61% 29.87 in 10.0 mi WSW 4.6 mph - N/A   Clear
8:52 PM 33.1 °F 30.0 °F 21.9 °F 64% 29.84 in 10.0 mi SW 3.5 mph - N/A   Overcast
9:52 PM 34.0 °F 29.8 °F 23.0 °F 64% 29.82 in 10.0 mi WSW 4.6 mph - N/A   Partly Cloudy
10:52 PM 34.0 °F 29.8 °F 23.0 °F 64% 29.81 in 10.0 mi WSW 4.6 mph - N/A   Overcast
11:52 PM 35.1 °F 30.1 °F 21.9 °F 59% 29.80 in 10.0 mi West 5.8 mph - N/A   Overcast